This is the latest recevied weather packets stored in our database for station/object OK1OBR-13. If no packets are shown the sender has not sent any weather packets the latest 1 day(s).
| Time | Temp. | Humidity | Pressure | Rain* | Wind** | Luminosity | Snow |
|---|---|---|---|---|---|---|---|
| 1778054221 | 14.44° C | 71% | 930.2 hPa | 0.25 mm | - | - | - |
| 1778054162 | 15° C | 72% | 930.1 hPa | 0.25 mm | - | - | - |
| 1778054041 | 15° C | 73% | 929.9 hPa | 0.25 mm | - | - | - |
| 1778053921 | 15° C | 72% | 930.2 hPa | 0.25 mm | - | - | - |
| 1778053861 | 15° C | 73% | 930 hPa | 0.25 mm | - | - | - |
| 1778053801 | 14.44° C | 73% | 930.2 hPa | 0.25 mm | - | - | - |
| 1778053741 | 14.44° C | 75% | 930.2 hPa | 0.25 mm | - | - | - |
| 1778053622 | 14.44° C | 76% | 930.1 hPa | 0.25 mm | - | - | - |
| 1778053561 | 13.89° C | 75% | 930.3 hPa | 0.25 mm | - | - | - |
| 1778053261 | 13.33° C | 79% | 930.2 hPa | 0.25 mm | - | - | - |
| 1778053142 | 13.33° C | 77% | 930 hPa | 0.25 mm | - | - | - |
| 1778052841 | 13.33° C | 77% | 930.3 hPa | 0.25 mm | - | - | - |
| 1778052781 | 13.33° C | 76% | 929.9 hPa | 0.25 mm | - | - | - |
| 1778052601 | 13.33° C | 76% | 930.2 hPa | 0.25 mm | - | - | - |
| 1778052422 | 13.33° C | 75% | 930.3 hPa | 0.25 mm | - | - | - |
| 1778052361 | 13.33° C | 76% | 930.1 hPa | 0.25 mm | - | - | - |
| 1778052241 | 13.33° C | 75% | 930.2 hPa | 0.25 mm | - | - | - |
| 1778052182 | 13.89° C | 75% | 930.2 hPa | 0.25 mm | - | - | - |
| 1778052121 | 13.89° C | 75% | 930.1 hPa | 0.25 mm | - | - | - |
| 1778052061 | 13.89° C | 75% | 930.2 hPa | 0.25 mm | - | - | - |
| 1778052002 | 13.89° C | 75% | 930.2 hPa | 0.25 mm | - | - | - |
| 1778051881 | 13.89° C | 74% | 930.2 hPa | 0.25 mm | - | - | - |
| 1778051761 | 13.89° C | 76% | 930.1 hPa | 0.25 mm | - | - | - |
| 1778051641 | 13.89° C | 74% | 930.2 hPa | 0.25 mm | - | - | - |
| 1778051282 | 14.44° C | 74% | 930.1 hPa | 0.25 mm | - | - | - |
* Rain since midnight (hover to see other rain measurements)
** Current wind speed in m/s (hover to see current wind gust speed)